This is the latest recevied weather packets stored in our database for station/object OZ1IEP-5. If no packets are shown the sender has not sent any weather packets the latest 10 day(s).
| Time | Temp. | Humidity | Pressure | Rain* | Wind** | Luminosity | Snow |
|---|---|---|---|---|---|---|---|
| 1777716011 | 23.89° C | 45% | 1015.6 hPa | 0 mm | - | 770 W/m² | - |
| 1777715407 | 23.33° C | 44% | 1015.7 hPa | 0 mm | - | 745 W/m² | - |
| 1777714807 | 22.78° C | 47% | 1015.7 hPa | 0 mm | - | 749 W/m² | - |
| 1777714211 | 22.78° C | 50% | 1015.7 hPa | 0 mm | - | 719 W/m² | - |
| 1777713607 | 22.22° C | 50% | 1015.7 hPa | 0 mm | - | 290 W/m² | - |
| 1777713007 | 22.22° C | 51% | 1016 hPa | 0 mm | - | 552 W/m² | - |
| 1777712411 | 21.67° C | 53% | 1016 hPa | 0 mm | - | 684 W/m² | - |
| 1777711807 | 21.11° C | 52% | 1016.1 hPa | 0 mm | - | 670 W/m² | - |
| 1777711207 | 21.11° C | 54% | 1016.1 hPa | 0 mm | - | 666 W/m² | - |
| 1777710611 | 20.56° C | 56% | 1016.1 hPa | 0 mm | - | 649 W/m² | - |
| 1777710007 | 20° C | 56% | 1016.2 hPa | 0 mm | - | 628 W/m² | - |
| 1777709407 | 19.44° C | 58% | 1016.2 hPa | 0 mm | - | 529 W/m² | - |
| 1777708810 | 18.89° C | 58% | 1016.2 hPa | 0 mm | - | 276 W/m² | - |
| 1777708207 | 18.33° C | 60% | 1016.4 hPa | 0 mm | - | 279 W/m² | - |
| 1777707607 | 17.78° C | 59% | 1016.5 hPa | 0 mm | - | 62 W/m² | - |
| 1777707011 | 17.22° C | 60% | 1016.6 hPa | 0 mm | - | 185 W/m² | - |
| 1777706406 | 16.67° C | 63% | 1016.6 hPa | 0 mm | - | 156 W/m² | - |
| 1777705806 | 16.11° C | 65% | 1016.7 hPa | 0 mm | - | 130 W/m² | - |
| 1777705213 | 15.56° C | 68% | 1016.7 hPa | 0 mm | - | 44 W/m² | - |
| 1777704005 | 14.44° C | 72% | 1016.8 hPa | 0 mm | - | 69 W/m² | - |
| 1777703408 | 13.89° C | 73% | 1016.8 hPa | 0 mm | - | 40 W/m² | - |
| 1777702806 | 13.33° C | 75% | 1016.9 hPa | 0 mm | - | 37 W/m² | - |
| 1777702207 | 12.78° C | 75% | 1016.9 hPa | 0 mm | - | 35 W/m² | - |
| 1777701609 | 12.22° C | 74% | 1017 hPa | 0 mm | - | 35 W/m² | - |
| 1777701006 | 12.22° C | 75% | 1017.1 hPa | 0 mm | - | 32 W/m² | - |
* Rain latest hour (hover to see other rain measurements)
** Current wind speed in m/s (hover to see current wind gust speed)